(473117) = 1998 HT9 = 2015 HZ175

Discovered at Kitt Peak on 1998-04-18 by Spacewatch.

Orbit

Orbit type: Main Belt

Note: WebGL enabled browser required.

epoch2023-02-25.0
epoch JD2460000.5
perihelion date2019-05-15.35075
perihelion JD2458618.85075
argument of perihelion (°)115.69389
ascending node (°)79.75614
inclination (°)14.11894
eccentricity0.2186428
perihelion distance (AU)2.0501874
Tisserand w.r.t. Jupiter3.3
ΔV w.r.t. Earth (km/sec)10.0
semimajor axis (AU)2.6238797
mean anomaly (°)320.39503
mean daily motion (°/day)0.23189320
aphelion distance (AU)3.198
period (years)4.25
P-vector [x]-0.93707541
P-vector [y]-0.33629468
P-vector [z]0.09378469
Q-vector [x]0.25350933
Q-vector [y]-0.84012064
Q-vector [z]-0.47951051
absolute magnitude17.11
phase slope0.15
uncertainty0
referenceMPO 745323
observations used237
oppositions12
arc length (days)9138
first opposition used1998
last opposition used2023
residual rms (arc-secs)0.76
perturbers coarse indicatorM-v
perturbers precise indicator003Ek
first observation date used1998-04-18.0
last observation date used2023-04-25.0
computer nameMPCLINUX
JD of orbit computation2457614.474526
perihelion JD uncertainty (days)5.5252E-05
argument of perihelion uncertainty (°)2.7703E-05
ascending node uncertainty (°)2.2705E-05
inclination uncertainty (°)6.6130E-06
eccentricity uncertainty 6.6687E-08
perihelion distance uncertainty (AU)1.7439E-07
Minimum Orbit Intersection Distances (in AU)
for orbit epoch: 2460000.5, reference: E2023-J05
Mercury1.63266
Venus1.34439
Earth1.09038
Mars0.56096
Jupiter1.90663
Saturn6.11453
Uranus16.2945
Neptune26.717

Observations

241 total observations over interval: 1998 04 18.41589 – 2023 04 25.145829
These data are available for download (format description).

Date (UT) J2000 RA J2000 Dec Magn Location Ref
1998 04 18.41589 15 39 24.03 -02 37 17.1 19.8 V 691 – Steward Observatory, Kitt Peak-Spacewatch MPS 1074
1998 04 18.44811 15 39 22.68 -02 37 19.6 19.7 V 691 – Steward Observatory, Kitt Peak-Spacewatch MPS 1074
1998 04 18.47888 15 39 21.36 -02 37 21.8 19.9 V 691 – Steward Observatory, Kitt Peak-Spacewatch MPS 1074
1998 04 25.43878 15 34 01.96 -02 50 04.0 19.8 V 691 – Steward Observatory, Kitt Peak-Spacewatch MPS 1074
1998 04 25.46164 15 34 00.70 -02 50 07.3 19.9 V 691 – Steward Observatory, Kitt Peak-Spacewatch MPS 1074
1998 04 25.48447 15 33 59.54 -02 50 10.6 20.2 V 691 – Steward Observatory, Kitt Peak-Spacewatch MPS 1074
2006 02 02.29756 08 55 05.30 +36 46 42.8 19.6 V 703 – Catalina Sky Survey MPS 723668
2006 02 02.30410 08 55 05.01 +36 46 45.6 20.4 V 703 – Catalina Sky Survey MPS 723668
2006 02 02.31066 08 55 04.65 +36 46 49.0 20.8 V 703 – Catalina Sky Survey MPS 723668
2006 02 02.31720 08 55 04.04 +36 46 52.8 19.5 V 703 – Catalina Sky Survey MPS 723668
2009 12 19.22483 06 37 05.01 +28 48 40.7 20.2 V 691 – Steward Observatory, Kitt Peak-Spacewatch MPS 723668
2009 12 19.24256 06 37 03.95 +28 48 48.2 20.7 V 691 – Steward Observatory, Kitt Peak-Spacewatch MPS 723668
2009 12 19.26031 06 37 02.76 +28 48 55.7 20.7 V 691 – Steward Observatory, Kitt Peak-Spacewatch MPS 723668
2012 10 10.358185 00 25 22.089 -18 34 33.48 21.8 w F51 – Pan-STARRS 1, Haleakala MPS 723668
2012 10 10.372100 00 25 21.359 -18 34 35.14 21.8 w F51 – Pan-STARRS 1, Haleakala MPS 723668
2012 10 10.386027 00 25 20.617 -18 34 36.62 21.7 w F51 – Pan-STARRS 1, Haleakala MPS 723668
2012 10 10.399943 00 25 19.910 -18 34 38.11 21.8 w F51 – Pan-STARRS 1, Haleakala MPS 723668
2013 11 27.36183 04 54 15.152 +19 16 16.89 20.8 w F51 – Pan-STARRS 1, Haleakala MPS 723668
2013 11 27.37707 04 54 14.177 +19 16 18.95 21.0 w F51 – Pan-STARRS 1, Haleakala MPS 723668
2013 11 27.39228 04 54 13.199 +19 16 21.04 20.9 w F51 – Pan-STARRS 1, Haleakala MPS 723668
2013 12 10.27238 04 40 12.24 +19 46 03.2 20.6 V G96 – Mt. Lemmon Survey MPS 723668
2013 12 10.27758 04 40 11.93 +19 46 04.4 20.5 V G96 – Mt. Lemmon Survey MPS 723668
2013 12 10.28279 04 40 11.56 +19 46 04.8 20.8 V G96 – Mt. Lemmon Survey MPS 723668
2013 12 10.28802 04 40 11.26 +19 46 05.2 20.9 V G96 – Mt. Lemmon Survey MPS 723668
2013 12 24.17022 04 25 49.67 +20 19 33.8 20.5 V G96 – Mt. Lemmon Survey MPS 723668
2013 12 24.17927 04 25 49.18 +20 19 35.6 20.7 V G96 – Mt. Lemmon Survey MPS 723668
2013 12 24.18831 04 25 48.68 +20 19 36.3 20.9 V G96 – Mt. Lemmon Survey MPS 723668
2013 12 24.19737 04 25 48.13 +20 19 38.1 20.8 V G96 – Mt. Lemmon Survey MPS 723668
2014 01 07.16254 04 14 53.22 +20 56 44.9 21.1 V G96 – Mt. Lemmon Survey MPS 723668
2014 01 07.16775 04 14 53.03 +20 56 46.2 21.3 V G96 – Mt. Lemmon Survey MPS 723668
2014 01 07.17297 04 14 52.79 +20 56 47.0 21.1 V G96 – Mt. Lemmon Survey MPS 723668
2014 01 07.17819 04 14 52.65 +20 56 48.1 21.2 V G96 – Mt. Lemmon Survey MPS 723668
2015 01 28.61997 14 50 32.525 -00 55 20.63 21.1 w F51 – Pan-STARRS 1, Haleakala MPS 608733
2015 01 28.63223 14 50 33.619 -00 55 23.65 21.1 w F51 – Pan-STARRS 1, Haleakala MPS 608733
2015 01 28.64450 14 50 34.718 -00 55 26.59 21.1 w F51 – Pan-STARRS 1, Haleakala MPS 608733
2015 01 28.65680 14 50 35.808 -00 55 29.51 21.1 w F51 – Pan-STARRS 1, Haleakala MPS 608733
2015 01 30.60349 14 53 30.995 -01 03 05.33 21.2 w F51 – Pan-STARRS 1, Haleakala MPS 608733
2015 01 30.61556 14 53 32.064 -01 03 08.03 21.1 w F51 – Pan-STARRS 1, Haleakala MPS 608733
2015 01 30.62765 14 53 33.115 -01 03 10.74 21.2 w F51 – Pan-STARRS 1, Haleakala MPS 608733
2015 02 25.56839 15 26 04.057 -02 04 59.88 20.9 w F51 – Pan-STARRS 1, Haleakala MPS 723668
2015 02 25.58309 15 26 04.878 -02 05 00.76 20.9 w F51 – Pan-STARRS 1, Haleakala MPS 723668
2015 02 25.59502 15 26 05.554 -02 05 01.38 20.6 w F51 – Pan-STARRS 1, Haleakala MPS 723668
2015 02 25.60694 15 26 06.219 -02 05 02.13 20.7 w F51 – Pan-STARRS 1, Haleakala MPS 723668
2015 04 16.36514 15 36 32.11 -02 10 42.8 20.1 V 691 – Steward Observatory, Kitt Peak-Spacewatch MPS 604713
2015 04 16.38448 15 36 31.36 -02 10 44.2 19.6 V 691 – Steward Observatory, Kitt Peak-Spacewatch MPS 604713
2015 04 16.40407 15 36 30.56 -02 10 45.0 20.0 V 691 – Steward Observatory, Kitt Peak-Spacewatch MPS 604713
2015 04 18.34429 15 35 14.27 -02 12 41.2 20.0 r G45 – Space Surveillance Telescope, Atom Site MPS 604713
2015 04 18.35177 15 35 13.97 -02 12 42.1 19.8 r G45 – Space Surveillance Telescope, Atom Site MPS 604713
2015 04 18.35777 15 35 13.65 -02 12 42.3 19.4 r G45 – Space Surveillance Telescope, Atom Site MPS 604713
2015 04 18.36952 15 35 13.16 -02 12 43.0 20.2 r G45 – Space Surveillance Telescope, Atom Site MPS 604713
2015 04 18.37491 15 35 12.91 -02 12 43.3 20.0 r G45 – Space Surveillance Telescope, Atom Site MPS 604713
2015 04 18.38077 15 35 12.68 -02 12 43.2 19.6 r G45 – Space Surveillance Telescope, Atom Site MPS 604713
2015 04 19.32340 15 34 33.26 -02 13 50.3 20.0 r G45 – Space Surveillance Telescope, Atom Site MPS 604713
2015 04 19.32852 15 34 33.05 -02 13 50.3 20.0 r G45 – Space Surveillance Telescope, Atom Site MPS 604713
2015 04 19.33509 15 34 32.74 -02 13 51.0 19.8 r G45 – Space Surveillance Telescope, Atom Site MPS 604713
2015 04 19.34065 15 34 32.51 -02 13 51.9 20.0 r G45 – Space Surveillance Telescope, Atom Site MPS 604713
2015 04 28.35665 15 27 06.68 -02 30 55.7 19.9 V 703 – Catalina Sky Survey MPS 604713
2015 04 28.37286 15 27 05.70 -02 30 58.4 19.2 V 703 – Catalina Sky Survey MPS 604713
2015 04 28.38240 15 27 05.16 -02 31 00.0 19.5 V 703 – Catalina Sky Survey MPS 604713
2015 05 08.35352 15 17 17.05 -03 05 33.6 18.4 V 703 – Catalina Sky Survey MPS 723668
2015 05 08.36152 15 17 16.50 -03 05 33.9 19.5 V 703 – Catalina Sky Survey MPS 723668
2015 05 11.40430 15 14 08.89 -03 19 39.7 19.2 V G96 – Mt. Lemmon Survey MPS 606443
2015 05 11.40886 15 14 08.59 -03 19 41.6 19.1 V G96 – Mt. Lemmon Survey MPS 606443
2015 05 11.41345 15 14 08.28 -03 19 42.2 19.1 V G96 – Mt. Lemmon Survey MPS 606443
2015 05 11.41804 15 14 08.01 -03 19 43.4 19.2 V G96 – Mt. Lemmon Survey MPS 606443
2015 05 15.64492 15 09 49.50 -03 42 04.0 19.9 R D29 – Purple Mountain Observatory, XuYi Station MPS 607384
2015 05 15.65815 15 09 48.72 -03 42 11.0 19.2 R D29 – Purple Mountain Observatory, XuYi Station MPS 607384
2015 05 18.66526 15 06 49.16 -04 00 02.6 19.5 R D29 – Purple Mountain Observatory, XuYi Station MPS 607384
2015 05 18.67937 15 06 48.31 -04 00 08.0 19.6 R D29 – Purple Mountain Observatory, XuYi Station MPS 607384
2015 05 18.69348 15 06 47.44 -04 00 13.6 19.2 R D29 – Purple Mountain Observatory, XuYi Station MPS 607384
2015 05 19.25206 15 06 14.93 -04 03 43.4 19.4 V 703 – Catalina Sky Survey MPS 607384
2015 05 19.25919 15 06 14.50 -04 03 45.0 19.4 V 703 – Catalina Sky Survey MPS 607384
2015 05 19.26632 15 06 14.07 -04 03 46.9 19.5 V 703 – Catalina Sky Survey MPS 607384
2015 05 19.27347 15 06 13.65 -04 03 50.3 19.5 V 703 – Catalina Sky Survey MPS 607384
2015 05 21.38445 15 04 12.492 -04 17 31.73 19.5 w F51 – Pan-STARRS 1, Haleakala MPS 607384
2015 05 21.39725 15 04 11.734 -04 17 36.83 19.4 w F51 – Pan-STARRS 1, Haleakala MPS 607384
2015 05 21.41005 15 04 10.971 -04 17 41.95 19.4 w F51 – Pan-STARRS 1, Haleakala MPS 607384
2015 05 26.33711 14 59 45.964 -04 52 31.13 19.3 i F51 – Pan-STARRS 1, Haleakala MPS 608733
2015 05 26.35002 14 59 45.268 -04 52 36.90 19.3 i F51 – Pan-STARRS 1, Haleakala MPS 608733
2015 05 26.36297 14 59 44.570 -04 52 42.72 19.5 i F51 – Pan-STARRS 1, Haleakala MPS 608733
2015 06 10.34648 14 49 51.138 -06 58 58.20 19.9 w F51 – Pan-STARRS 1, Haleakala MPS 609959
2015 06 10.36029 14 49 50.734 -06 59 05.91 19.9 w F51 – Pan-STARRS 1, Haleakala MPS 609959
2015 06 13.00204 14 48 46.12 -07 23 44.8 19.9 z W84 – Cerro Tololo-DECam MPS 1224672
2015 06 13.00546 14 48 46.03 -07 23 46.8   W84 – Cerro Tololo-DECam MPS 1224672
2015 06 13.00887 14 48 45.95 -07 23 48.6   W84 – Cerro Tololo-DECam MPS 1224672
2015 06 13.01228 14 48 45.87 -07 23 50.7   W84 – Cerro Tololo-DECam MPS 1224672
2015 06 13.01568 14 48 45.79 -07 23 52.6   W84 – Cerro Tololo-DECam MPS 1224672
2015 06 13.01909 14 48 45.70 -07 23 54.6   W84 – Cerro Tololo-DECam MPS 1224672
